General Mariano Escobedo International Airport (MTY/MMMY)


Airport Information
Location: Monterrey,
Coordinates: 25.7785 / -100.107
Field Elevation: 1,275ft
Longest Runway: 10,060ft
ILS Approaches: YES
Landing Fees: $2,344 per flight
Jet A Price: $0.56/lbs

Current Weather
METAR:
Not available
TAF: TAF AMD MMMY 010440Z 0105/0200 31007KT 1 1/2SM -DZ BR OVC003 TX08/0121Z TN04/0112Z TEMPO 0106/0109 1SM BR DZ VV002 FM010900 00000KT 1SM BR DZ BKN002 OVC003 FM011700 12010KT 3SM BR BKN005 OVC010

No chart available
Flight Arriving
CPX782 MMMX - Benito Juárez International Airport
Mexico Mexico City, Mexico
Flight Aircraft Departing
CPX764
MMMX - Benito Juárez International Airport
Mexico Mexico City, Mexico



Recent Arrivals
Date Flight Type Depart
09/12/2022 CPX764 B738 Benito Juárez Intl (MMMX)
07/09/2022 CPX764 B738 Benito Juárez Intl (MMMX)
06/29/2022 CPX3126 B738 Benito Juárez Intl (MMMX)
Recent Departures
Date Flight Type Arrive
09/12/2022 CPX782 B738 Benito Juárez Intl (MMMX)
07/10/2022 CPX782 B738 Benito Juárez Intl (MMMX)
07/01/2022 CPX3127 B738 Benito Juárez Intl (MMMX)